Lapse_Rate
4.0 4.9 6.0 6.2 6.3 6.2 6.2 6.1 6.0 5.9 5.9 5.7 5.7 5.4 5.3 5.4 5.4 5.4 5.5 5.2 4.9 5.0 5.1 4.9 5.0 5.0 5.3 5.7 5.9 5.7 5.0 5.3 5.8 5.9 5.8 6.4 6.5 6.7 6.6 6.4 6.4 6.6 6.5
3.4 5.1 5.9 6.1 6.3 6.1 5.9 5.9 5.8 5.7 5.7 5.7 5.6 5.6 5.5 5.5 5.4 5.5 5.5 5.2 4.8 4.8 4.9 5.1 5.3 5.3 5.6 5.8 6.0 5.8 5.5 5.9 6.2 6.3 6.5 6.5 6.6 6.5 6.7 6.7 7.0 7.0 6.8
3.5 5.2 5.9 6.0 6.1 6.1 6.0 5.9 6.0 6.0 5.9 5.9 5.9 5.7 5.7 5.5 5.7 5.5 5.3 5.1 4.9 5.0 5.2 5.2 5.5 5.7 6.0 6.0 6.0 5.9 5.7 5.9 6.5 6.6 6.6 5.7 6.5 6.7 6.6 6.9 6.9 6.9 6.9
3.4 4.8 5.5 5.8 6.0 5.9 6.0 6.1 6.1 6.4 6.4 6.3 6.4 6.2 6.0 5.8 5.7 5.6 5.3 5.0 5.1 5.3 5.4 5.4 5.6 5.9 6.5 6.5 6.3 6.0 6.0 6.6 7.1 6.6 5.8 6.0 6.3 6.6 6.4 6.4 6.7 6.6 6.6
3.4 4.0 5.2 6.1 5.7 5.6 5.7 5.8 6.2 6.3 6.5 6.5 6.5 6.4 6.3 6.1 5.8 5.5 5.2 5.0 5.2 5.4 5.6 5.7 5.8 5.9 6.0 6.4 6.8 6.6 6.7 7.0 5.9 5.9 5.1 5.9 6.3 5.7 5.3 5.9 6.5 6.5 6.4
3.6 4.2 5.4 6.1 5.7 5.5 5.5 5.3 5.8 6.2 6.5 6.3 6.4 6.4 6.4 6.1 5.8 5.5 5.3 5.3 5.4 5.5 5.6 5.9 6.0 6.0 6.2 6.4 6.6 6.7 7.0 6.6 5.5 4.9 5.4 6.5 6.1 5.5 5.9 5.3 5.9 6.3 6.1
3.3 4.2 5.3 5.9 5.4 5.4 5.4 5.5 5.6 5.9 6.0 6.5 6.7 6.5 6.2 6.0 5.9 5.8 5.5 5.5 5.6 5.9 6.0 6.0 6.0 6.4 6.3 6.5 6.5 6.6 6.7 6.3 5.4 5.3 5.4 6.4 6.8 6.8 6.4 5.2 5.7 6.0 6.1
3.4 3.8 4.6 5.5 5.5 5.8 5.7 5.5 5.6 6.3 6.2 6.3 6.5 6.4 6.1 5.8 5.7 5.6 5.7 6.0 6.3 6.3 6.4 6.3 6.2 6.6 6.3 6.8 6.5 6.7 6.9 5.9 5.3 5.4 5.2 7.0 7.1 7.2 6.9 6.0 6.1 5.7 6.2
4.1 3.7 4.3 5.0 5.5 5.9 6.4 5.8 5.9 6.5 6.4 6.5 6.5 6.4 6.0 6.2 6.2 6.1 6.1 6.2 6.3 6.4 6.7 6.3 6.1 6.2 6.4 7.3 7.0 6.8 6.9 6.3 5.3 5.3 5.2 5.3 7.0 6.7 6.8 6.3 6.0 5.9 6.1
3.5 3.8 3.4 4.3 5.3 5.4 6.1 6.1 6.2 6.4 6.9 6.8 6.6 6.7 6.7 6.9 6.7 6.5 6.4 6.2 6.4 6.6 6.9 6.3 6.2 6.2 6.3 7.0 7.0 7.3 7.1 7.1 5.2 4.8 5.0 5.8 7.2 6.9 6.8 5.5 6.1 6.5 6.0
4.1 3.6 3.9 3.7 4.0 5.0 5.9 6.0 6.3 6.3 6.5 6.9 6.6 7.2 6.8 5.6 6.0 6.1 5.7 6.0 6.4 6.7 6.8 6.6 6.2 6.0 6.2 6.7 7.2 7.1 7.3 6.7 6.3 5.3 5.0 5.2 6.4 7.0 6.7 5.9 6.3 6.5 6.3
4.7 4.0 3.6 3.4 3.1 3.9 5.3 5.2 5.6 5.6 4.9 5.5 5.3 5.0 4.9 5.3 5.3 5.5 5.7 6.4 6.6 6.8 6.9 6.9 6.9 6.3 6.6 5.0 5.7 6.5 5.6 5.8 5.2 4.9 5.0 5.0 6.2 7.1 5.7 6.1 6.2 6.5 6.4
5.0 4.9 3.6 3.4 3.2 3.4 4.2 4.2 3.9 2.8 3.5 3.8 4.2 4.3 5.0 4.9 4.3 4.6 4.6 4.8 4.8 5.4 5.2 5.2 5.2 4.2 4.3 4.3 4.3 4.1 4.5 4.6 4.5 4.4 5.3 5.3 6.2 6.4 5.9 5.6 6.5 6.4 6.3
4.9 4.5 3.5 3.1 2.8 2.9 3.2 2.7 2.6 2.9 3.4 4.0 4.4 4.7 4.7 4.4 4.6 4.4 4.2 4.6 4.1 4.1 4.0 4.3 3.8 3.8 3.9 4.0 3.6 3.0 3.2 4.1 4.3 3.7 4.4 6.1 6.5 6.4 5.8 6.2 7.0 6.8 6.4
4.2 4.4 3.7 2.6 2.7 2.3 2.4 2.3 2.6 3.0 3.5 3.9 4.3 4.5 4.8 4.2 3.9 4.6 4.0 4.2 3.8 3.9 3.8 3.9 3.4 3.3 3.4 3.5 3.3 3.2 3.3 3.9 4.4 3.7 3.8 5.2 5.5 6.2 6.7 6.9 6.9 6.7 6.4
3.5 4.0 3.7 2.5 2.6 2.2 2.2 2.3 2.3 2.9 3.5 3.4 3.5 3.9 4.3 4.5 4.4 4.1 3.9 4.1 3.7 3.8 3.2 2.8 3.0 2.7 2.9 3.1 3.5 3.5 3.9 3.7 3.7 3.7 3.5 4.3 5.8 6.4 6.7 6.8 6.7 6.8 6.6
3.0 2.9 2.7 2.8 2.8 2.3 2.2 2.5 2.6 2.8 3.3 2.7 3.1 3.8 4.2 4.4 4.4 4.3 3.5 3.6 3.6 3.1 2.6 2.6 2.8 2.8 2.9 3.1 3.1 2.2 3.4 3.7 3.5 3.4 3.5 4.1 4.7 6.2 6.5 6.7 6.6 6.6 6.5
3.2 2.8 2.9 4.2 3.1 2.7 2.6 2.8 2.9 3.3 3.1 2.9 2.9 3.5 3.9 4.0 4.2 4.1 3.7 3.3 3.3 2.7 2.5 2.3 2.6 2.6 3.3 3.5 3.2 2.8 3.4 3.6 3.8 3.6 4.0 4.1 4.7 5.9 6.3 6.5 6.4 6.4 6.5
2.4 2.7 2.4 3.4 3.0 2.9 2.8 2.9 2.8 3.3 2.9 2.9 3.0 3.3 3.9 4.1 4.1 3.8 3.7 3.2 2.9 2.3 2.2 2.9 3.6 3.2 3.5 3.2 3.5 3.7 3.4 3.3 3.7 4.1 4.1 3.8 4.4 5.3 5.6 6.1 6.3 6.2 6.5
2.6 2.6 2.7 3.2 3.2 3.0 3.0 3.1 3.0 3.2 3.0 3.1 3.0 3.3 3.8 3.8 4.1 3.8 3.5 3.3 3.4 2.5 2.2 2.8 3.3 3.2 3.2 3.4 4.0 4.1 3.1 3.2 3.3 3.7 4.1 3.7 3.6 4.3 5.0 5.5 5.8 5.9 6.1
2.8 2.1 2.6 3.0 2.7 2.9 2.8 3.3 3.1 3.4 3.3 3.3 3.1 3.3 3.8 3.9 4.3 3.8 3.3 3.6 3.7 3.3 3.4 3.5 3.5 3.7 3.2 2.8 3.3 3.3 3.2 3.4 3.6 3.5 3.7 4.1 3.7 3.9 4.1 4.4 5.0 5.3 5.7
1.9 2.1 2.5 2.8 2.3 2.7 2.6 2.7 3.8 3.5 3.4 3.9 3.8 3.7 3.8 4.3 4.2 4.0 3.4 3.4 3.8 3.4 3.5 3.5 3.1 3.4 3.2 2.5 3.6 3.2 4.5 4.6 3.5 3.5 3.2 3.9 4.2 4.0 3.9 3.7 4.2 4.7 5.1
2.5 2.4 2.2 2.5 2.2 2.3 2.7 2.9 3.1 3.3 3.0 3.1 3.0 3.3 3.6 4.1 4.5 4.3 3.9 3.5 3.8 3.1 3.6 3.8 3.5 3.7 4.0 3.2 2.8 3.7 4.0 4.6 3.0 2.6 2.8 3.1 3.5 3.7 4.1 4.0 3.9 3.9 4.0
3.0 2.8 2.7 2.1 2.1 2.3 2.4 3.0 3.2 3.3 3.7 3.3 3.4 4.0 4.1 4.2 4.3 4.4 4.1 3.7 3.6 3.2 3.3 3.8 3.1 3.0 2.8 4.0 2.9 2.9 2.7 2.9 4.5 4.8 3.2 3.1 2.7 3.7 3.9 3.8 4.2 3.9 3.6
3.8 3.2 2.7 1.9 1.9 2.2 2.2 2.8 3.0 3.0 3.2 3.7 3.5 3.7 3.8 3.7 4.2 4.2 4.0 3.6 3.5 3.1 3.2 3.4 3.8 3.9 3.0 3.1 3.6 3.0 2.6 2.4 2.4 3.7 4.5 3.6 2.9 2.5 3.2 3.9 3.9 3.7 3.3
3.9 3.6 3.0 2.0 1.7 1.8 1.8 2.3 2.7 3.3 3.2 3.6 3.7 3.5 3.5 3.6 3.7 3.7 3.8 3.5 3.4 3.0 3.1 3.7 3.4 3.8 3.3 3.3 3.4 3.1 3.7 3.8 3.6 3.3 3.1 3.4 3.8 3.6 2.6 2.6 2.9 3.7 3.3
Wind_Speed
7 14 20 20 20 20 20 23 23 23 23 23 23 23 22 20 18 17 15 14 14 14 13 14 14 13 13 14 16 16 17 17 16 15 15 14 14 15 16 17 15 15 17
12 18 22 21 21 20 20 22 23 23 24 23 23 23 22 20 17 15 14 14 14 13 12 12 12 12 12 13 14 14 16 13 14 14 14 15 14 15 14 15 13 15 16
14 19 21 22 21 20 20 21 22 23 23 22 22 23 22 19 16 14 14 13 14 13 12 11 10 11 12 13 12 13 13 13 11 11 12 12 13 14 13 12 14 14 15
16 18 19 23 22 20 20 20 21 21 21 21 20 20 19 18 15 13 12 12 12 11 10 10 9 8 10 11 12 13 15 14 12 10 10 10 11 14 14 11 10 12 14
13 16 19 22 22 22 21 19 19 20 19 19 18 18 17 15 14 12 10 9 9 9 8 8 8 7 7 9 10 13 13 15 17 5 5 6 9 13 17 14 9 10 11
11 16 22 22 23 21 21 20 19 19 18 18 18 17 17 14 13 11 9 7 7 7 6 5 6 6 6 7 10 11 12 14 12 13 13 12 11 10 13 16 13 7 10
10 15 21 21 21 20 20 19 18 18 18 16 16 16 14 12 10 9 8 6 6 5 4 4 4 5 5 5 6 10 12 11 10 10 10 16 14 11 7 14 12 10 8
10 11 18 20 21 20 21 19 18 18 18 16 15 15 13 12 10 8 6 4 4 4 4 4 4 5 5 6 7 9 13 14 11 9 8 11 10 10 9 8 11 11 10
11 8 12 14 19 19 19 19 17 16 18 19 16 15 13 10 7 6 3 2 2 4 5 5 5 5 8 7 9 9 12 14 12 10 7 10 19 15 7 5 8 10 11
7 7 8 12 14 15 16 17 16 16 15 15 13 11 10 8 5 4 3 2 3 4 4 5 6 7 7 6 7 11 12 13 10 9 11 12 18 22 17 20 7 12 14
5 5 7 7 10 14 14 16 16 15 13 11 3 7 9 5 3 2 1 4 5 6 6 7 8 8 8 5 6 10 11 10 10 10 12 14 16 22 20 24 19 15 17
10 7 6 7 9 12 10 11 15 13 10 14 16 11 7 4 2 3 4 5 7 7 7 8 8 8 9 2 5 8 7 11 10 11 13 15 19 19 21 24 26 20 19
13 9 6 6 9 9 7 8 9 5 6 7 8 7 6 4 2 1 2 3 4 6 7 5 5 3 2 2 6 5 6 9 10 10 13 16 20 19 23 24 24 22 20
14 12 7 7 7 8 9 8 7 7 7 6 7 7 6 1 3 4 3 3 4 6 6 6 5 5 6 8 8 8 7 9 8 9 13 17 18 23 27 28 25 22 21
14 14 10 7 7 8 7 7 7 6 6 8 7 7 7 6 4 6 3 3 6 8 6 6 6 6 6 7 8 9 8 10 8 7 10 14 14 22 28 26 25 24 22
9 13 11 8 7 8 4 6 6 8 8 8 7 9 10 8 8 5 3 3 7 7 10 8 6 4 4 6 7 7 8 8 7 8 7 12 19 19 23 24 25 27 25
11 10 10 9 7 6 5 6 6 7 9 7 8 10 11 10 7 5 3 3 7 10 6 6 5 4 3 4 4 5 7 6 6 7 7 8 9 20 19 20 21 26 26
8 11 8 10 8 6 5 5 6 8 9 8 9 10 11 12 10 7 3 3 7 9 3 2 3 2 3 2 3 2 1 3 4 8 7 6 7 12 16 18 20 24 26
10 10 9 8 7 8 6 7 9 8 7 9 10 9 10 11 11 8 5 6 7 6 1 3 2 2 1 2 2 1 2 1 3 7 7 7 8 9 8 13 14 21 25
7 7 6 6 6 7 4 3 2 3 5 8 8 8 11 10 11 8 6 5 7 2 2 2 2 1 2 1 1 1 2 1 2 3 5 7 9 9 10 9 10 15 26
5 7 9 9 6 6 2 3 2 4 3 3 7 8 9 10 11 8 5 3 5 3 3 3 1 2 1 1 1 1 2 0 3 3 5 6 9 10 10 10 10 11 16
7 7 9 9 6 7 4 2 2 2 2 2 5 8 9 10 11 8 5 3 4 2 3 2 2 0 0 1 1 1 1 1 1 2 3 5 7 9 10 11 11 13 14
7 9 8 8 8 6 6 3 2 2 1 1 2 2 5 10 10 9 8 5 3 2 3 3 2 3 1 1 1 2 1 2 1 0 3 5 6 5 8 11 14 14 15
6 6 6 7 7 6 7 4 5 3 4 3 3 2 3 8 8 9 9 7 4 3 3 3 2 2 2 2 1 2 0 2 1 0 0 2 5 7 8 9 13 15 16
4 6 6 6 6 6 7 8 7 6 3 1 1 4 4 3 7 8 8 7 4 3 3 3 3 3 2 2 2 1 1 1 1 1 1 1 2 4 5 7 12 13 16
6 6 6 7 8 6 7 8 9 8 5 3 3 3 3 3 4 6 7 6 5 3 3 3 3 3 3 3 2 3 2 2 2 2 2 3 3 3 4 6 7 12 14
Wind_Direction
161 154 143 134 126 117 116 118 123 129 132 132 134 131 130 129 127 125 121 113 106 101 101 99 96 97 100 101 111 121 122 124 122 123 122 117 114 116 115 114 110 113 115
143 151 146 137 130 125 121 123 123 124 130 132 133 133 133 134 132 129 123 117 109 105 109 105 111 107 107 111 117 118 123 120 123 136 128 121 117 110 113 111 124 119 119
141 150 148 140 134 132 130 128 128 129 130 134 134 134 135 138 136 133 127 122 115 112 105 105 103 117 122 122 126 127 123 128 121 119 122 102 111 113 110 119 123 128 127
138 146 149 143 141 139 140 134 131 132 132 132 132 131 133 135 137 135 130 126 122 115 113 110 112 114 117 134 137 133 136 133 106 95 97 121 118 118 111 110 122 128 126
136 139 148 144 144 145 144 143 140 140 140 136 135 135 135 138 139 137 136 133 127 123 118 117 119 126 131 145 144 140 145 129 117 126 110 128 118 126 126 121 115 128 129
133 140 151 150 148 149 146 148 151 147 146 146 144 144 144 148 147 144 151 148 140 135 132 136 152 141 150 159 162 155 146 123 129 130 130 137 134 131 139 129 132 134 138
137 147 150 157 153 155 151 153 154 156 155 154 149 151 154 154 159 160 170 168 163 159 168 171 175 169 168 179 186 164 158 141 135 128 143 150 150 158 158 136 144 142 152
139 142 152 157 156 159 156 158 161 165 162 159 164 161 167 161 169 171 182 186 191 192 199 205 210 205 193 190 183 183 167 142 132 131 177 161 162 168 186 160 147 152 162
137 132 144 160 161 165 163 163 167 173 167 166 176 173 159 161 159 161 171 203 223 218 210 213 221 220 223 213 183 198 172 151 153 164 173 184 172 183 219 208 156 168 171
133 137 137 157 166 163 162 165 172 175 178 171 166 169 161 177 183 206 229 253 256 239 217 221 235 229 236 227 207 195 192 198 180 185 192 197 183 177 193 240 209 193 180
123 147 147 150 159 166 166 178 174 178 174 163 175 219 170 164 206 261 285 251 255 250 225 226 231 242 248 231 213 199 206 215 225 222 207 205 193 184 189 217 217 206 190
171 161 156 155 155 163 167 169 177 180 174 174 193 196 154 163 218 257 269 259 266 250 248 244 238 248 247 223 225 224 218 226 233 229 215 200 200 185 186 215 213 206 192
175 179 168 159 161 158 157 161 167 137 149 164 161 168 150 151 134 283 300 299 307 296 285 287 291 280 254 234 230 222 221 234 230 221 212 205 203 174 200 210 199 194 191
183 180 168 162 164 164 156 160 155 157 170 168 163 153 152 120 251 252 274 300 297 291 280 265 268 280 274 273 258 236 222 234 230 198 210 215 201 196 195 202 199 191 187
183 186 178 162 169 167 157 159 169 183 187 202 191 182 169 180 269 263 272 293 299 290 270 256 240 243 264 270 258 239 218 220 224 200 201 221 197 197 191 191 191 192 189
181 189 182 174 172 160 163 162 179 187 201 213 207 202 194 193 222 251 269 305 286 279 278 240 219 239 244 252 274 270 241 213 201 195 196 210 198 204 193 192 198 200 195
187 175 181 176 169 170 182 168 178 195 203 213 211 208 205 212 224 238 247 280 285 306 265 216 213 247 268 266 261 271 260 204 160 176 192 207 228 198 200 191 195 198 197
174 182 181 184 180 183 190 172 166 211 207 214 214 208 205 212 226 238 235 264 291 309 239 224 253 238 248 253 252 241 314 216 150 158 170 182 192 191 195 195 199 202 197
179 185 186 184 174 190 195 184 191 203 205 216 217 207 211 216 222 218 243 274 294 289 225 252 234 211 241 243 262 358 43 243 150 152 149 154 175 175 183 191 199 204 203
187 179 173 181 180 185 176 168 170 200 214 213 216 208 206 214 215 213 233 261 285 257 228 243 251 182 211 227 64 33 14 128 157 166 159 166 181 181 183 196 204 205 204
170 162 173 181 183 163 150 179 186 220 203 202 216 214 210 201 212 216 236 236 266 286 270 237 249 194 272 136 113 72 14 131 178 188 180 175 186 195 193 193 193 191 199
183 180 178 189 175 187 184 173 162 159 218 195 194 214 206 200 213 206 217 221 236 263 279 259 221 162 335 184 162 106 114 331 277 228 204 194 195 192 200 200 196 196 199
184 189 187 190 184 182 184 133 110 96 27 171 212 225 207 196 215 207 206 214 230 218 253 240 184 180 228 204 210 140 140 212 280 251 217 214 190 201 205 204 201 204 204
202 180 182 185 189 188 169 183 184 187 204 214 193 198 200 198 207 207 210 211 218 219 251 274 198 166 160 195 131 208 338 134 188 27 302 215 199 208 206 211 210 208 211
190 194 192 187 200 191 185 196 204 211 207 212 218 208 211 200 207 202 207 209 222 222 213 233 246 204 181 181 194 190 140 76 141 139 247 264 250 214 213 213 214 210 210
208 192 187 189 208 195 190 200 204 216 195 195 217 223 219 200 213 212 202 219 231 217 233 238 240 243 229 211 189 196 170 168 218 179 209 238 228 231 216 213 211 214 208